Location: Derby
(52.9213°N, 1.4761°W)
Time: 18:34:44
(UTC+01:00)

Tiros 1 - Pass Details

Date: 21 May 2025
Orbit: 620 x 651 km, 48.4° (Epoch: 13 June)

Event Time Altitude Azimuth Distance (km) Brightness Sun altitude
Rises 20:37:30 0° 260° (W) 2,901 11.4 2.9°
Reaches altitude 10° 20:39:52 10° 255° (WSW) 1,998 10.4 2.6°
Maximum altitude 20:44:17 49° 181° (S) 815 7.6 2.0°
Drops below altitude 10° 20:48:45 10° 107° (ESE) 2,016 9.1 1.4°
Sets 20:51:08 0° 102° (ESE) 2,929 9.9 1.1°
